FW9140 Weather Reports


time (UTC)temp
C
wind
direction
speed
KPH
gust
KPH
rain 1hr
cm
rain 24hr
cm
rain mn
cm
humidity
%
barometer
mb
20260506134400 10 265 1.6 3.2 0.00 0.00 0.00 89 1022.1
20260506133857 10 201 4.8 8.0 0.00 0.00 0.00 89 1022.2
20260506133354 10 275 1.6 3.2 0.00 0.00 0.00 89 1022.0
20260506132850 10 232 8.0 9.7 0.00 0.00 0.00 89 1022.1
20260506132348 10 284 3.2 8.0 0.00 0.00 0.00 89 1022.1
20260506131846 10 291 0.0 3.2 0.00 0.00 0.00 89 1021.9
20260506131342 10 268 3.2 4.8 0.00 0.00 0.00 89 1022.0
20260506130839 10 262 1.6 4.8 0.00 0.00 0.00 89 1022.0
20260506130335 11 268 3.2 4.8 0.00 0.00 0.00 89 1021.9
20260506125833 11 260 0.0 1.6 0.00 0.00 0.00 89 1022.2
20260506125332 11 210 4.8 4.8 0.00 0.00 0.00 89 1021.9
20260506124830 11 276 0.0 0.0 0.00 0.00 0.00 89 1021.9
20260506124326 11 276 0.0 0.0 0.00 0.00 0.00 89 1021.8
20260506123824 11 267 0.0 0.0 0.00 0.00 0.00 89 1021.7
20260506123322 11 250 1.6 3.2 0.00 0.00 0.00 89 1021.8
20260506122819 11 282 0.0 1.6 0.00 0.00 0.00 89 1021.7
20260506122316 11 305 3.2 3.2 0.00 0.00 0.00 89 1021.6
20260506121814 11 272 0.0 1.6 0.00 0.00 0.00 89 1021.8
20260506121311 11 259 1.6 3.2 0.00 0.00 0.00 89 1021.8
20260506120808 11 271 0.0 3.2 0.00 0.00 0.00 89 1022.0
20260506120306 11 267 0.0 0.0 0.00 0.00 0.00 89 1021.8
20260506115803 11 257 1.6 4.8 0.00 0.00 0.00 89 1021.9
20260506115306 11 275 3.2 3.2 0.00 0.00 0.00 89 1021.8
20260506114759 11 271 0.0 3.2 0.00 0.00 0.00 90 1021.8
20260506114256 11 221 0.0 1.6 0.00 0.00 0.00 91 1021.8
20260506113755 11 243 0.0 0.0 0.00 0.00 0.00 92 1021.5
20260506113252 11 243 0.0 0.0 0.00 0.00 0.00 92 1021.6
20260506112748 11 255 0.0 1.6 0.00 0.00 0.00 92 1021.5
20260506112246 11 266 0.0 0.0 0.00 0.00 0.00 92 1021.4
20260506111743 11 266 0.0 0.0 0.00 0.00 0.00 92 1021.4
20260506111241 11 224 1.6 3.2 0.00 0.00 0.00 92 1021.2
20260506110737 11 254 0.0 0.0 0.00 0.00 0.00 92 1021.2
20260506110235 11 238 0.0 1.6 0.00 0.00 0.00 92 1021.4
20260506105731 11 230 1.6 4.8 0.00 0.00 0.00 92 1021.1
20260506105229 11 252 0.0 1.6 0.00 0.00 0.00 92 1021.1
20260506104727 11 270 0.0 0.0 0.00 0.00 0.00 91 1020.9
20260506104224 11 260 0.0 3.2 0.00 0.00 0.00 91 1021.0
20260506103721 11 271 1.6 1.6 0.00 0.00 0.00 92 1021.2
20260506103218 11 267 0.0 0.0 0.00 0.00 0.00 92 1021.1
20260506102716 11 268 0.0 0.0 0.00 0.00 0.00 92 1021.0
20260506102214 11 268 0.0 0.0 0.00 0.00 0.00 92 1021.1
20260506101710 11 268 0.0 0.0 0.00 0.00 0.00 92 1020.8
20260506101207 11 267 0.0 1.6 0.00 0.00 0.00 92 1020.8
20260506100705 11 258 0.0 1.6 0.00 0.00 0.00 92 1020.7
20260506100203 11 221 3.2 3.2 0.00 0.00 0.00 92 1020.8
20260506095701 11 237 1.6 3.2 0.00 0.00 0.00 92 1020.6
20260506095157 11 230 1.6 3.2 0.00 0.00 0.00 91 1020.7
20260506094655 11 241 1.6 1.6 0.00 0.00 0.00 91 1020.6
20260506094152 11 245 1.6 3.2 0.00 0.00 0.00 91 1020.6
20260506093651 11 264 0.0 0.0 0.00 0.00 0.00 90 1020.7
20260506093148 11 251 0.0 1.6 0.00 0.00 0.00 90 1020.6
20260506092645 11 261 0.0 0.0 0.00 0.00 0.00 89 1020.6
20260506092142 11 278 0.0 0.0 0.00 0.00 0.00 88 1020.6
20260506091640 11 260 0.0 1.6 0.00 0.00 0.00 88 1020.7
20260506091138 11 275 1.6 1.6 0.00 0.00 0.00 88 1020.7
20260506090636 11 273 0.0 1.6 0.00 0.00 0.00 88 1020.8
20260506090131 11 274 0.0 1.6 0.00 0.00 0.00 88 1020.6
20260506085629 11 210 1.6 3.2 0.00 0.00 0.00 88 1020.5
20260506085125 11 247 0.0 1.6 0.00 0.00 0.00 88 1020.7
20260506084621 11 273 0.0 3.2 0.00 0.00 0.00 88 1020.5
20260506084118 11 276 1.6 1.6 0.00 0.00 0.00 88 1020.3
20260506083615 11 256 0.0 4.8 0.00 0.00 0.00 88 1020.6
20260506083113 11 271 0.0 3.2 0.00 0.00 0.00 88 1020.4
20260506082609 11 269 1.6 3.2 0.00 0.00 0.00 88 1020.4
20260506082105 11 290 0.0 3.2 0.00 0.00 0.00 88 1020.4
20260506081604 11 271 0.0 3.2 0.00 0.00 0.00 88 1020.5
20260506081101 11 343 4.8 8.0 0.00 0.00 0.00 88 1020.3
20260506080558 11 215 4.8 11.3 0.00 0.00 0.00 88 1020.3
20260506073038 11 306 0.0 4.8 0.00 0.00 0.00 89 1019.9
20260506072536 11 338 3.2 3.2 0.00 0.00 0.00 89 1020.1
20260506072033 11 66 3.2 4.8 0.00 0.00 0.00 89 1020.2
20260506071531 11 82 3.2 3.2 0.00 0.00 0.00 90 1020.0
20260506071028 11 289 0.0 3.2 0.00 0.00 0.00 90 1020.0
20260506070525 11 294 1.6 3.2 0.00 0.00 0.00 90 1019.9
20260506062503 11 291 0.0 3.2 0.00 0.00 0.00 89 1019.5
20260506061959 11 300 0.0 3.2 0.00 0.00 0.00 89 1019.6
20260506061455 11 307 1.6 3.2 0.00 0.00 0.00 89 1019.5
20260506060953 11 300 1.6 3.2 0.00 0.00 0.00 89 1019.5
20260506060451 11 279 1.6 3.2 0.00 0.00 0.00 89 1019.5
20260506050920 11 267 0.0 1.6 0.00 0.00 0.00 89 1019.2
20260506050418 11 284 1.6 3.2 0.00 0.00 0.00 89 1019.4
20260506044908 11 354 3.2 4.8 0.00 0.00 0.00 90 1019.4
20260506044406 11 293 1.6 3.2 0.00 0.00 0.00 90 1019.3
20260506043903 11 249 1.6 4.8 0.00 0.00 0.00 90 1019.4
20260506043400 11 299 3.2 4.8 0.00 0.00 0.00 90 1019.3
20260506042858 11 280 1.6 3.2 0.00 0.00 0.00 90 1019.3
20260506042357 11 290 1.6 3.2 0.00 0.00 0.00 90 1019.3
20260506041855 11 312 4.8 4.8 0.00 0.00 0.00 90 1019.1
20260506041354 11 257 1.6 4.8 0.00 0.00 0.00 90 1019.0
20260506040849 11 263 0.0 3.2 0.00 0.00 0.00 90 1018.9
20260506040347 11 347 0.0 4.8 0.00 0.00 0.00 90 1018.8
20260506035842 11 301 1.6 3.2 0.00 0.00 0.00 90 1019.0
20260506035340 11 280 1.6 3.2 0.00 0.00 0.00 90 1018.5
20260506034837 11 288 1.6 3.2 0.00 0.00 0.00 90 1018.8
20260506034334 11 279 1.6 1.6 0.00 0.00 0.00 90 1018.6
20260506033831 11 287 1.6 3.2 0.00 0.00 0.00 89 1018.3
20260506033328 11 301 1.6 3.2 0.00 0.00 0.00 88 1018.5
20260506032825 11 313 4.8 4.8 0.00 0.00 0.00 88 1018.3
20260506032322 11 274 1.6 4.8 0.00 0.00 0.00 88 1018.3
20260506031819 11 317 3.2 4.8 0.00 0.00 0.00 88 1018.4
20260506031316 11 285 3.2 8.0 0.00 0.00 0.00 87 1018.3
20260506030814 11 248 3.2 8.0 0.00 0.00 0.00 87 1018.3
20260506030311 11 298 0.0 4.8 0.00 0.00 0.00 87 1018.2
20260506025808 11 245 3.2 3.2 0.00 0.00 0.00 87 1018.2
20260506025306 12 264 4.8 8.0 0.00 0.00 0.00 87 1018.4
20260506024802 12 286 3.2 11.3 0.00 0.00 0.00 87 1018.1
20260506024258 12 277 9.7 12.9 0.00 0.00 0.00 87 1018.2
20260506023754 12 286 6.4 11.3 0.00 0.00 0.00 86 1018.3
20260506023252 12 316 4.8 9.7 0.00 0.00 0.00 86 1018.2
20260506022748 12 260 3.2 8.0 0.00 0.00 0.00 86 1018.3
20260506022246 12 318 8.0 9.7 0.00 0.00 0.00 85 1018.2
20260506021744 12 274 4.8 9.7 0.00 0.00 0.00 85 1018.3
20260506021240 12 191 4.8 8.0 0.00 0.00 0.00 84 1018.2
20260506020737 12 275 4.8 11.3 0.00 0.00 0.00 83 1018.3
20260506020235 12 336 3.2 9.7 0.00 0.00 0.00 83 1018.3
20260506015732 12 253 0.0 8.0 0.00 0.00 0.00 83 1018.1
20260506015230 13 320 9.7 11.3 0.00 0.00 0.00 82 1018.3
20260506014727 13 319 6.4 8.0 0.00 0.00 0.00 81 1018.1
20260506014223 13 289 8.0 9.7 0.00 0.00 0.00 81 1018.2
20260506013720 13 253 4.8 11.3 0.00 0.00 0.00 81 1018.4
20260506013217 13 216 4.8 8.0 0.00 0.00 0.00 81 1018.4
20260506012713 13 241 1.6 4.8 0.00 0.00 0.00 81 1018.5
20260506012211 13 152 4.8 14.5 0.00 0.00 0.00 80 1018.4
20260506011708 13 239 1.6 9.7 0.00 0.00 0.00 80 1018.4
20260506011204 13 275 1.6 8.0 0.00 0.00 0.00 80 1018.4
20260506010703 13 240 6.4 14.5 0.00 0.00 0.00 79 1018.4
20260506010200 13 304 4.8 8.0 0.00 0.00 0.00 80 1018.4
20260506005657 13 252 8.0 12.9 0.00 0.00 0.00 79 1018.3
20260506005153 13 261 6.4 12.9 0.00 0.00 0.00 80 1018.4
20260506004649 14 261 8.0 9.7 0.00 0.00 0.00 78 1018.5
20260506004147 13 273 1.6 14.5 0.00 0.00 0.00 78 1018.2
20260506003643 14 306 6.4 20.9 0.00 0.00 0.00 79 1018.2
20260506003139 14 251 4.8 8.0 0.00 0.00 0.00 77 1018.3
20260506002635 14 201 6.4 11.3 0.00 0.00 0.00 78 1018.4
20260506002132 14 276 1.6 14.5 0.00 0.00 0.00 78 1018.4
20260506001627 13 348 9.7 14.5 0.00 0.00 0.00 79 1018.3
20260506001125 13 319 3.2 22.5 0.00 0.00 0.00 80 1018.5
20260506000622 13 295 3.2 11.3 0.00 0.00 0.00 80 1018.6
20260506000119 13 277 8.0 22.5 0.00 0.00 0.00 80 1018.6
20260505235617 13 307 6.4 8.0 0.00 0.00 0.00 79 1018.6
20260505235114 13 271 4.8 14.5 0.00 0.00 0.00 79 1018.8
20260505234611 13 261 11.3 12.9 0.00 0.00 0.00 79 1018.7
20260505234108 13 200 3.2 12.9 0.00 0.00 0.00 79 1018.7
20260505233606 13 25 6.4 11.3 0.00 0.00 0.00 79 1018.7
20260505233102 13 246 9.7 16.1 0.00 0.00 0.00 79 1019.0
20260505232601 13 133 8.0 11.3 0.00 0.00 0.00 79 1018.9
20260505232058 13 274 6.4 9.7 0.00 0.00 0.00 79 1018.9
20260505231554 13 36 4.8 14.5 0.00 0.00 0.00 78 1019.1
20260505231053 13 259 9.7 12.9 0.00 0.00 0.00 78 1019.0
20260505230550 13 288 4.8 22.5 0.00 0.00 0.00 79 1019.2
20260505230046 14 42 3.2 17.7 0.00 0.00 0.00 78 1019.0
20260505225543 13 1 6.4 9.7 0.00 0.00 0.00 79 1019.2
20260505225039 13 82 6.4 14.5 0.00 0.00 0.00 79 1019.2
20260505224537 14 124 6.4 14.5 0.00 0.00 0.00 79 1019.1
20260505224034 14 251 3.2 14.5 0.00 0.00 0.00 77 1019.1
20260505223531 14 242 6.4 12.9 0.00 0.00 0.00 77 1019.2
20260505223027 13 217 8.0 14.5 0.00 0.00 0.00 79 1019.3
20260505222523 13 288 8.0 12.9 0.00 0.00 0.00 79 1019.4
20260505222019 14 324 6.4 12.9 0.00 0.00 0.00 77 1019.5
20260505221517 14 104 3.2 12.9 0.00 0.00 0.00 78 1019.4
20260505221013 15 279 4.8 12.9 0.00 0.00 0.00 76 1019.3
20260505220511 14 293 8.0 14.5 0.00 0.00 0.00 77 1019.6
20260505220009 14 278 4.8 12.9 0.00 0.00 0.00 77 1019.6
20260505215506 14 280 4.8 9.7 0.00 0.00 0.00 78 1019.7
20260505215004 13 270 4.8 9.7 0.00 0.00 0.00 78 1019.6
20260505214502 15 312 3.2 3.2 0.00 0.00 0.00 77 1019.7
20260505213958 15 252 11.3 14.5 0.00 0.00 0.00 77 1019.9
20260505213456 14 294 8.0 9.7 0.00 0.00 0.00 79 1019.7
20260505212952 14 253 11.3 14.5 0.00 0.00 0.00 78 1020.0
20260505212449 14 240 8.0 11.3 0.00 0.00 0.00 77 1019.7
20260505211945 15 274 8.0 11.3 0.00 0.00 0.00 77 1019.7
20260505211443 14 263 4.8 12.9 0.00 0.00 0.00 77 1019.5
20260505210939 14 234 8.0 14.5 0.00 0.00 0.00 78 1020.0
20260505210436 13 212 8.0 12.9 0.00 0.00 0.00 79 1020.0
20260505205933 13 266 8.0 22.5 0.00 0.00 0.00 81 1019.9
20260505205432 14 261 14.5 16.1 0.00 0.00 0.00 79 1019.8
20260505204928 13 271 8.0 14.5 0.00 0.00 0.00 81 1019.9
20260505204426 13 273 9.7 14.5 0.00 0.00 0.00 82 1019.8
20260505203923 13 274 9.7 17.7 0.00 0.00 0.00 81 1019.8
20260505203419 13 254 9.7 12.9 0.00 0.00 0.00 82 1020.0
20260505202916 13 213 11.3 16.1 0.00 0.00 0.00 84 1020.0
20260505202412 13 242 4.8 8.0 0.00 0.00 0.00 83 1020.0
20260505201909 13 256 4.8 12.9 0.00 0.00 0.00 83 1020.0
20260505201406 13 272 11.3 12.9 0.00 0.00 0.00 83 1020.0
20260505200904 12 261 9.7 11.3 0.00 0.00 0.00 84 1020.1
20260505200401 12 264 6.4 11.3 0.00 0.00 0.00 85 1019.8
20260505195856 12 249 4.8 14.5 0.00 0.00 0.00 85 1019.8
20260505195354 13 251 4.8 16.1 0.00 0.00 0.00 84 1020.1
20260505194851 13 277 4.8 9.7 0.00 0.00 0.00 82 1019.7
20260505194349 13 249 4.8 9.7 0.00 0.00 0.00 83 1019.9
20260505193848 12 244 8.0 12.9 0.00 0.00 0.00 85 1019.9
20260505193347 12 234 8.0 14.5 0.00 0.00 0.00 84 1019.8
20260505192844 12 282 4.8 9.7 0.00 0.00 0.00 85 1019.8
20260505192342 13 255 9.7 14.5 0.00 0.00 0.00 84 1020.0
20260505191839 12 242 6.4 12.9 0.00 0.00 0.00 85 1020.0
20260505191338 12 268 9.7 11.3 0.00 0.00 0.00 84 1019.9
20260505190834 12 246 4.8 12.9 0.00 0.00 0.00 85 1019.9
20260505190330 12 253 8.0 11.3 0.00 0.00 0.00 85 1020.1
20260505185826 12 233 6.4 11.3 0.00 0.00 0.00 85 1019.9
20260505185322 12 294 4.8 8.0 0.00 0.00 0.00 85 1020.0
20260505184819 12 250 3.2 8.0 0.00 0.00 0.00 85 1019.8
20260505184316 12 261 4.8 8.0 0.00 0.00 0.00 86 1019.8
20260505183813 12 261 4.8 4.8 0.00 0.00 0.00 85 1019.9
20260505183310 12 271 4.8 4.8 0.00 0.00 0.00 86 1020.0
20260505182806 12 272 6.4 8.0 0.00 0.00 0.00 87 1019.9
20260505182305 12 258 4.8 8.0 0.00 0.00 0.00 87 1019.8
20260505181800 12 271 3.2 8.0 0.00 0.00 0.00 87 1019.9
20260505181257 12 270 6.4 9.7 0.00 0.00 0.00 88 1019.8
20260505180753 12 252 4.8 8.0 0.00 0.00 0.00 88 1019.7
20260505180250 12 270 1.6 4.8 0.00 0.00 0.00 88 1019.5
20260505175746 12 214 3.2 4.8 0.00 0.00 0.00 89 1019.8
20260505175243 12 251 1.6 8.0 0.00 0.00 0.00 89 1019.5
20260505174739 12 254 3.2 8.0 0.00 0.00 0.00 88 1019.6
20260505174237 12 269 4.8 8.0 0.00 0.00 0.00 89 1019.6
20260505173733 12 258 4.8 8.0 0.00 0.00 0.00 89 1019.5
20260505173230 12 266 4.8 8.0 0.00 0.00 0.00 89 1019.6
20260505172727 12 262 3.2 4.8 0.00 0.00 0.00 90 1019.4
20260505172224 11 254 4.8 4.8 0.00 0.00 0.00 90 1019.3
20260505171723 12 249 4.8 8.0 0.00 0.00 0.00 89 1019.5
20260505171221 12 255 1.6 3.2 0.00 0.00 0.00 89 1019.6
20260505170717 12 255 1.6 3.2 0.00 0.00 0.00 90 1019.2
20260505170214 12 257 0.0 3.2 0.00 0.00 0.00 88 1019.4
20260505165710 12 257 0.0 1.6 0.00 0.00 0.00 89 1019.5
20260505165206 11 259 1.6 3.2 0.00 0.00 0.00 90 1019.4
20260505164701 11 256 3.2 3.2 0.00 0.00 0.00 90 1019.5
20260505164159 11 262 1.6 3.2 0.00 0.00 0.00 90 1019.3
20260505163657 11 269 3.2 3.2 0.00 0.00 0.00 91 1019.3
20260505163155 11 243 4.8 4.8 0.00 0.00 0.00 91 1019.3
20260505162652 11 266 3.2 3.2 0.00 0.00 0.00 90 1019.5
20260505162149 11 264 1.6 3.2 0.00 0.00 0.00 91 1019.4
20260505161646 11 263 0.0 4.8 0.00 0.00 0.00 91 1019.4
20260505161143 11 264 4.8 4.8 0.00 0.00 0.00 91 1019.5
20260505160641 11 254 3.2 4.8 0.00 0.00 0.00 91 1019.3
20260505160138 11 264 3.2 3.2 0.00 0.00 0.00 90 1019.2
20260505153118 11 267 1.6 4.8 0.00 0.00 0.00 91 1018.9
20260505152614 11 265 1.6 3.2 0.00 0.00 0.00 91 1019.2
20260505152110 11 266 3.2 3.2 0.00 0.00 0.00 91 1018.8
20260505151605 11 272 1.6 1.6 0.00 0.00 0.00 92 1018.9
20260505151103 11 265 1.6 3.2 0.00 0.00 0.00 92 1018.9
20260505150559 11 252 3.2 4.8 0.00 0.00 0.00 92 1018.8
20260505140525 10 273 0.0 1.6 0.00 0.00 0.00 96 1018.4